Skip Page Navigation
NASA JPL Caltech
NASA Logo - Jet Propulsion Laboratory + View the NASA Portal
+ Center for Near-Earth Object Studies
JPL Home Earth Solar System Stars & Galaxies Technology
JPL Solar System Dynamics
BODIES ORBITS EPHEMERIDES TOOLS PHYSICAL DATA DISCOVERY FAQ SITE MAP
JPL Small-Body Database Browser
Search: [ help ]  
181334 (2006 QY119)
Classification: Main-belt Asteroid          SPK-ID: 2181334
Ephemeris | Orbit Diagram | Orbital Elements | Mission Design | Physical Parameters | Discovery Circumstances ]

[ show orbit diagram ]
Orbital Elements at Epoch 2459200.5 (2020-Dec-17.0) TDB
Reference: JPL 17 (heliocentric ecliptic J2000)
 Element Value Uncertainty (1-sigma)   Units 
e .1987885310073001 4.4597e-08  
a 2.746081842461909 1.4277e-08 au
q 2.200192266973086 1.243e-07 au
i 3.67112861500046 5.1877e-06 deg
node 24.37982382783744 6.0444e-05 deg
peri 5.619358127939084 6.1912e-05 deg
M 42.23248519052658 1.2109e-05 deg
tp 2459005.509802423337
(2020-Jun-05.00980242)
5.5318e-05 TDB
period 1662.143982550776
4.55
1.2962e-05
3.549e-08
d
yr
n .2165877347445756 1.6891e-09 deg/d
Q 3.291971417950732 1.7115e-08 au
  Orbit Determination Parameters
   # obs. used (total)      540  
   data-arc span      8459 days (23.16 yr)  
   first obs. used      1997-11-22  
   last obs. used      2021-01-19  
   planetary ephem.      DE441  
   SB-pert. ephem.      SB441-N16  
   condition code      0  
   norm. resid. RMS      .50791  
   source      ORB  
   producer      Otto Matic  
   solution date      2021-Apr-13 21:30:13  

Additional Information
 Earth MOID = 1.20437 au 
 Jupiter MOID = 2.15788 au 
 T_jup = 3.316 
[ show covariance matrix ]

Ephemeris | Orbit Diagram | Orbital Elements | Mission Design | Physical Parameters | Discovery Circumstances ]

Physical Parameter Table
Parameter Symbol Value Units Sigma Reference Notes
absolute magnitude H 16.06   n/a MPCxxxxx  
diameter diameter 3.105 km 0.835 urn:nasa:pds:neowise_diameters_albedos::2.0[mainbelt] (http://adsabs.harvard.edu/abs/2011ApJ...741...68M)  
geometric albedo albedo 0.088   0.075 urn:nasa:pds:neowise_diameters_albedos::2.0[mainbelt] (http://adsabs.harvard.edu/abs/2011ApJ...741...68M)  

181334 (2006 QY119)          Discovered 2006-Aug-28 by CSS at Catalina
Reference: 20080321/Numbers.arcLast Updated: 2008-03-26

Alternate Designations
 2006 QY119 = 1997 WF30 
Ephemeris | Orbit Diagram | Orbital Elements | Mission Design | Physical Parameters | Discovery Circumstances ]
ABOUT SSD CREDITS/AWARDS PRIVACY/COPYRIGHT GLOSSARY LINKS
FirstGov 2021-May-06 19:45 UT
(server date/time)  
NASA Home Page
Site Manager:   Ryan S. Park
Webmaster  Alan B. Chamberlin